Showing default

COSMOS 1900, 18665

Orbit data source: Space-Track

COSMOS 1900, 18665 is a payload satellite owned by VMF (CIS) in LEO that was launched on Sat, 12 Dec 1987 UTC via a TSIKLON-2 launch vehicle from the Tyuratam Missile And Space Complex (TTMTR). Payload-class satellites include a variety of spacecraft equipped with specific instruments for various scientific and technological missions. These include communications satellites like Starlink; space stations such as the ISS; scientific satellites like the Hubble; Earth observation satellites from companies like Planet Labs, Umbra, and HawkEye 360; GPS; miniature CubeSats for education and research; and military/defense satellites.

Loading next visibility...
Identifier
18665, 1987-101A
Orbit
LEO
Last TLE update
1 day ago
Origin
Manufacturer
KOMET/ARSL
Mission
Defense Sigint
Bus & Motor
US-A REACTOR, Unknown motor
Mass
4,300 kg wet, 1,154 kg dry
Launch date (UTC)
1987-12-12 (37 years ago)
Launch vehicle
TSIKLON-2
Launch site
Tyuratam Missile And Space Complex (TTMTR)
Object type
Payload
Rocket body
Debris
Shape & HBR
Cone + Cyl, 5.8 m
Radar Cross Section
6.586 m², Large (>1 m²)

Expand to show TLE details & history

TLE from 1 day ago
0 COSMOS 1900
1 18665U 87101A   25128.29286400  .00000240  00000-0  78299-4 0  9997
2 18665  66.0838  77.7313 0039170 333.1705  26.7374 14.55455692989583
Epoch: 2025-05-08T07:01Z
Definitive object data (Epoch: 2025-05-08T07:01:43.449Z)
Latitude
-0.00003°
Longitude
105.93481°
Altitude
685.199 km
Speed
7.527 km/s
True Right ascension
05h 10m 55s
True Declination
0° 00' 00"
Sunlit
Object was in daylight at TLE epoch
Visualization TLE readout
Latitude
66.19577°
Longitude
-166.05332°
Altitude
731.249 km
Speed
7.489 km/s
Apparent Right ascension
05h 04m 26s
Apparent Declination
31° 10' 60"
Sunlit
Object is in daylight
Visualization observer readout
Local Sidereal Time
14:40:36
Azimuth
329.162° NNW
Elevation
-11.471°
Doppler factor
1
Orbital elements
Apogee altitude
734.064 km
Perigee altitude
678.565 km
Semi-major axis
7,084.451 km
Eccentricity
0.003917
Inclination
66.0838°
RAAN
77.7313°
Arg. of periapsis
333.1705°
True anomaly
26.94023°
Mean anomaly
26.7374°
Eccentric anomaly
26.83872°
Mean motion
3.63985 °/min
BSTAR
0.000078299
Orbital period
98.91 mins
Loading maneuver chart data...
Loading SW <> Apogee altitude chart data...
Loading historical data...
Loading historical data...
Loading historical data...
Loading historical data...
Loading historical data...
Loading historical data...
Loading historical data...

COSMOS 1900 Visibility forecast

Observer location: undefined°, undefined°

Span
Click to sort rows by Start time (UTC) header in descending order
Start Az.
Max El. time (UTC)
Max El. Az.
Max El.
End time (UTC)
End Az.
9 mins2025-05-09 06:38:45.441Z345.628° N2025-05-09 06:42:45.441Z44.567° NE32.97°2025-05-09 06:47:45.441Z123.731° SE
6 mins2025-05-09 08:21:45.441Z293.576° NW2025-05-09 08:24:45.441Z246.109° WSW23.169°2025-05-09 08:27:45.441Z202.956° SW
6 mins2025-05-09 21:05:45.441Z152.432° SSE2025-05-09 21:08:45.441Z102.874° ESE22.545°2025-05-09 21:11:45.441Z60.43° ENE
7 mins2025-05-09 22:46:45.441Z246.423° WSW2025-05-09 22:49:45.441Z302.662° NW32.07°2025-05-09 22:53:45.441Z11.891° NNE
5 mins2025-05-10 05:44:45.441Z14.134° NNE2025-05-10 05:46:45.441Z43.696° NE19.33°2025-05-10 05:49:45.441Z85.89° E
|